Location: Burzi?i
(45.0869°N, 16.0577°E)
Time: 11:59:09
(UTC+00:00)

Meteor 2-15 Rocket - Pass Details

Date: 29 October 2020
Orbit: 938 x 957 km, 82.5° (Epoch: 27 November)

Event Time Altitude Azimuth Distance (km) Brightness Sun altitude
Rises 17:33:07 0° 186° (S) 3,621 7.6 -19.1°
Reaches altitude 10° 17:35:36 10° 186° (S) 2,679 6.9 -19.6°
Maximum altitude 17:41:45 89° 97° (E) 962 4.4 -20.7°
Drops below altitude 10° 17:47:56 10° 9° (N) 2,690 6.7 -21.7°
Sets 17:50:26 0° 10° (N) 3,638 7.4 -22.2°
